Retour au catalogue

KUIPER-00009

ActifCommunicationsVLEO
NORAD 63725·PAYLOAD·🇺🇸 United States

Lancé Apr 28, 2025 depuis Cape Canaveral Space Force Station

Loading…

Prochains Passages (prochaines 24 heures)

TLE

FraisSource: CelesTrak SupGP

Époque: Sep 15, 2026, 03:22 UTC

1 63725C 25088B   26258.14037037  .00002749  00000+0  17614-3 0  2585
2 63725  51.9029 338.6522 0000309  97.7020 144.0870 15.08016497    13

Suivez KUIPER-00009 en temps réel avec AllMySat

Download on the App Store